Lid_Strength_Index
13 15 17 16 13 10 8 6 7 8 5 6 7 4 3 1 0 0 1 0 -0 -1 -1 -1 -1 -1 -1 -1 -1 -1 -1 -1
13 14 13 12 12 10 8 7 6 6 8 5 3 3 2 1 0 3 1 0 -0 -1 -1 -1 -1 -1 -1 -1 -1 -1 -1 -1
15 15 13 11 11 7 9 8 7 6 9 7 3 1 1 2 0 1 1 -0 -0 -1 -1 -1 -1 -1 -1 -1 -1 -1 -1 -1
16 14 12 12 12 10 8 7 7 7 8 7 2 3 1 1 2 1 1 0 -0 -1 -1 -1 -1 -1 -1 -1 -1 -1 -1 -1
15 14 12 11 13 14 10 8 8 6 8 8 4 3 1 1 1 1 1 0 -0 -0 -0 -1 -1 -1 -1 -1 -1 -1 -1 -1
16 14 14 10 11 14 9 7 6 6 8 10 6 4 4 4 3 1 1 2 1 0 1 -0 -0 -1 -1 -1 -1 -1 -1 -1
15 13 11 10 8 6 4 6 5 5 5 4 2 4 6 6 5 4 3 4 3 3 3 3 -0 -0 -1 -1 -1 -1 -1 -1
12 12 12 10 8 7 6 7 6 6 6 4 4 5 5 6 6 5 5 4 5 4 3 3 2 1 1 -0 -0 -0 -0 0
11 10 10 8 8 7 6 8 6 7 5 4 4 3 3 3 3 3 3 2 2 2 1 1 2 2 3 2 2 2 1 1
10 9 9 8 7 7 6 6 4 4 4 4 4 4 4 3 3 3 2 2 1 1 0 0 0 0 0 0 1 2 1 1
9 9 9 7 8 7 7 5 4 4 4 4 4 4 3 3 2 2 2 2 2 1 1 0 0 0 0 0 1 1 0 2
9 9 8 7 7 7 6 4 5 4 4 4 4 4 3 3 3 3 2 2 1 1 0 1 1 1 0 1 0 1 1 1
10 9 9 7 9 8 5 5 5 5 5 4 4 3 4 3 3 3 3 2 2 2 1 1 1 0 1 1 0 0 0 0
11 9 9 9 12 8 6 6 6 6 5 5 4 4 3 3 3 3 2 2 2 1 1 1 1 1 1 1 1 1 0 0
11 9 9 10 11 8 7 6 6 6 5 5 5 4 3 3 3 3 3 3 2 1 1 1 1 1 1 1 1 1 1 0
13 11 10 11 10 9 7 7 6 6 6 5 5 4 3 3 3 3 3 3 3 2 2 1 1 1 1 1 0 1 1 1
11 10 11 12 12 9 8 8 8 7 6 6 5 4 3 3 3 3 3 3 3 3 3 2 3 3 3 2 2 1 0 0
11 10 11 12 12 11 9 8 8 7 7 6 6 5 4 4 4 3 3 3 3 3 3 2 2 2 2 2 2 2 0 0
12 11 11 12 13 12 8 7 7 7 7 6 6 6 6 5 4 4 4 3 3 3 3 2 2 2 3 3 2 2 2 2
12 13 15 13 17 14 11 10 8 8 7 7 7 7 7 6 6 4 4 4 3 2 3 2 2 3 4 4 4 3 3 1